Regional Weather Roundup
Issued by NWS Newport/Morehead, NC

Current Version | Previous Version | Text Only | Print | Product List | Glossary Off
Versions: 1 2 3 4 5 6 7 8 9 10 11 12 13 14 15 16 17 18 19 20 21 22 23 24 25 26 27 28 29 30 31 32 33 34 35 36 37 38 39 40 41 42 43 44 45 46 47 48 49 50
000 ASUS42 KMHX 230514 RWRMHX WEATHER ROUNDUP FOR EASTERN NORTH CAROLINA NATIONAL WEATHER SERVICE NEWPORT/MOREHEAD CITY NC 100 AM EDT WED AUG 23 2017 NOTE: "FAIR" INDICATES FEW OR NO CLOUDS BELOW 12,000 FEET WITH NO SIGNIFICANT WEATHER AND/OR OBSTRUCTIONS TO VISIBILITY NCZ015>017-031-032-045>047-102-103-230600- NORTH COAST CITY SKY/WX TMP DP RH WIND PRES REMARKS EDENTON CLEAR 81 76 84 SW6 29.93F ELIZABETH CITY CLEAR 80 77 90 SW12 29.92S KITTY HAWK CLEAR 80 75 84 SW8 29.92S MANTEO CLEAR 80 76 87 SW14 29.94S $$ NCZ045>047-081-094-103-104-230600- CENTRAL COAST CITY SKY/WX TMP DP RH WIND PRES REMARKS FRISCO CLEAR 82 78 88 SW12 29.95F $$ NCZ095-097-098-100-101-230600- SOUTHERN COAST CITY SKY/WX TMP DP RH WIND PRES REMARKS BEAUFORT PTCLDY 82 77 84 SW16 29.96F CEDAR ISLAND NOT AVBL JACKSONVILLE CLEAR 78 76 93 SW6 29.95F PINEY ISLAND CLEAR N/A N/A N/A SW7 29.95F WILMINGTON CLEAR 80 75 84 SW7 29.96F $$ NCZ011>013-027>030-043-044-078>080-089-090>093-098-230600- COASTAL PLAIN CITY SKY/WX TMP DP RH WIND PRES REMARKS AHOSKIE N/A 76 75 96 CALM 29.92F CLINTON CLEAR 77 76 98 CALM 29.96F ELIZABETHTOWN NOT AVBL GOLDSBORO CLEAR 79 73 82 NW5 29.95S GREENVILLE CLEAR 79 73 83 SW7 29.96S HAVELOCK CLEAR 77 75 93 S5 29.96F KENANSVILLE CLEAR 77 73 88 SW3 29.95F KINSTON CLEAR 78 74 87 SW9 29.95F NEW BERN CLEAR 77 76 96 SW8 29.96F RICHLANDS CLEAR 75 74 96 SW5 29.96F ROCKY MOUNT CLEAR 78 74 87 S8 29.93F WASHINGTON CLEAR 78 74 88 SW6 29.94F WHITEVILLE NOT AVBL $$ AMZ130-135-150-152-154-156-158-170-250-252-270-ANZ085-086-088-633-658-670-230600- MARINE OBSERVATIONS STATION/POSITION TIME TEMP WIND PRES WAVE SWELL AIR SEA DIR/SP/G HT/PER HT/PER (UTC) (F) (DEG/KT/KT) (MB) (FT/S) (FT/S) CHESAPEAKE LIGHT NOT AVBL 64 E VA BEACH 0450 80 80 220/ 16/ 17 1013.1 5/ 9 3/ 9 DUCK 0448 82 71 220/ 18/ 23 1012.6 2 E DUCK 0500 75 N/A 3/10 2/11 OREGON INLET 0436 83 86 220/ 20/ 24 1013.5 13E OREGON INLT 0448 79 N/A 4/ 9 3/ 9 HATTERAS CG 0448 81 84 230/ 10/ 15 1014.1 DIAMOND BUOY 0450 83 85 220/ 17/ 19 1014.2 5/ 8 3/ 8 CAPE LOOKOUT 0500 82 220/ 11/ 15 1014.2 BEAUFORT LAB 0448 82 81 220/ 6/ 13 1014.0 30 SE NEW RVR IN 0408 81 84 230/ 14/ 17 1015.1 30 SE NEW RVR IN 0443 84 N/A 5/10 2/11 27 SE WRIGHTSVLE 0408 83 84 190/ 14/ 19 1015.0 5 SE WRIGHTSVLE 0408 83 84 210/ 10/ 17 1014.7 225 S CAPE HAT 0450 82 84 150/ 8/ 10 1016.3 4/ 9 3/ 9 41 SE CHARLESTON 0500 83 220/ 12/ 14 1015.8 $$

USA.gov is the U.S. government's official web portal to all federal, state and local government web resources and services.